User: anonymous   Login
Location: Unspecified
(0.0000°N, 0.0000°E)
Time: 03:04:38
(UTC+00:00)
Language:

Transit VE-3 - Orbit

View from above orbital plane
View from above orbital plane
View from above satellite
View from above satellite

Ground track
Ground track

The orbit data is extracted from the following two-line orbital elements,

1   705U 63049C   19053.65768639  .00000006  00000-0 -54384-5 0  9998
2   705  89.9032  95.0889 0034652  23.5995 125.1243 13.47327869712892
Epoch (UTC): 22 February 2019 15:47:04
Eccentricity: 0.0034652
inclination: 89.9032°
perigee height: 1056 km
apogee height: 1108 km
right ascension of ascending node: 95.0889°
argument of perigee: 23.5995°
revolutions per day: 13.47327869
mean anomaly at epoch: 125.1243°
orbit number at epoch: 71289

The dashed part of the orbit path shows where the satellite is in the earth's shadow,  

DLR